Regional Weather Roundup
Issued by NWS

Home | Current Version | Previous Version | Text Only | Print | Product List | Glossary Off
Versions: 1 2 3 4 5 6 7 8 9 10 11 12 13 14 15 16 17 18 19 20 21 22 23 24 25 26 27 28 29 30 31 32 33 34 35 36 37 38 39 40 41 42 43 44 45 46 47 48 49 50

000
ASUS43 KMKX 261421
RWRWI

WISCONSIN REGIONAL WEATHER ROUNDUP
NATIONAL WEATHER SERVICE MILWAUKEE/SULLIVAN WI
900 AM CDT SUN APR 26 2015

NOTE: "FAIR" INDICATES FEW OR NO CLOUDS BELOW 12,000 FEET WITH NO
SIGNIFICANT WEATHER AND/OR OBSTRUCTIONS TO VISIBILITY.

WIZ001-002-006>008-014>016-023>028-261500-
NORTHWEST WISCONSIN

CITY           SKY/WX    TMP DP  RH WIND       PRES   REMARKS
SUPERIOR ARPT  SUNNY     40  28  61 CALM      30.18R
ASHLAND        SUNNY     40  26  57 CALM      30.17R
HAYWARD        SUNNY     42  23  46 NE8       30.13R
SIREN          SUNNY     40  24  51 E3        30.14R
CUMBERLAND     SUNNY     41  21  45 CALM      30.12R
RICE LAKE      SUNNY     43  22  43 N5        30.14R
CHETEK         SUNNY     42  21  43 NE5       30.12R
LADYSMITH      SUNNY     46  23  40 E7        30.13R
EAU CLAIRE     SUNNY     44  23  43 E8        30.11R
MENOMONIE      SUNNY     45  23  42 E5        30.12R
NEW RICHMOND   SUNNY     44  24  45 E6        30.12R
OSCEOLA        SUNNY     44  25  47 E6        30.15R
$$

WIZ003>005-009-010-017-018-261500-
NORTH CENTRAL WISCONSIN

CITY           SKY/WX    TMP DP  RH WIND       PRES   REMARKS
MANITOWISH WTR SUNNY     42  20  41 N3        30.10R
ARBOR VITAE    SUNNY     44  20  39 N8        30.09R
WOODRUFF       SUNNY     44  20  39 N8        30.09R
RHINELANDER    SUNNY     43  20  39 N6        30.08R
EAGLE RIVER    SUNNY     44  17  34 NE7       30.07S
LAND O LAKES   SUNNY     44  18  36 N5        30.09S
PHILLIPS       SUNNY     42  21  43 NE7       30.10R
TOMAHAWK       SUNNY     41  21  44 CALM      30.09S
MEDFORD        SUNNY     43  23  45 NE7       30.09R
MERRILL        SUNNY     43  23  45 N5        30.09R
$$

WIZ029-030-035-036-043>047-261500-
CENTRAL WISCONSIN

CITY           SKY/WX    TMP DP  RH WIND       PRES   REMARKS
WAUSAU         SUNNY     44  23  43 NW6       30.07R
MOSINEE        SUNNY     43  21  42 N3        30.09R
MARSHFIELD     SUNNY     44  23  43 NE7       30.08R
STEVENS POINT  SUNNY     43  21  40 CALM      30.08R
WAUPACA        SUNNY     47  22  36 N6        30.08R
WAUTOMA        SUNNY     45  19  35 NE8       30.08R
WISC RAPIDS    SUNNY     45  19  35 E5        30.10R
CAMP DOUGLAS   SUNNY     45  23  42 E3        30.08R
$$

WIZ011>013-019>022-031-037>040-048>050-261500-
NORTHEAST WISCONSIN

CITY           SKY/WX    TMP DP  RH WIND       PRES   REMARKS
ANTIGO         SUNNY     41  23  49 NE8       30.07R
SHAWANO        SUNNY     47  22  37 NE3       30.08R
OCONTO         SUNNY     44  24  46 N3        30.06S
STURGEON BAY   SUNNY     41  27  56 N10       30.08R
GREEN BAY      SUNNY     45  24  43 N8        30.06R
MANITOWOC      SUNNY     44  27  51 N9        30.05R
APPLETON       SUNNY     43  21  42 N9        30.06R
CLINTONVILLE   SUNNY     45  21  39 NE7       30.07S
OSHKOSH        SUNNY     44  24  45 N6        30.06R
$$

WIZ032>034-041-042-053>061-261500-
SOUTHWEST WISCONSIN

CITY           SKY/WX    TMP DP  RH WIND       PRES   REMARKS
LA CROSSE      SUNNY     46  24  42 CALM      30.09R
SPARTA         SUNNY     44  23  43 NE7       30.09S
VIROQUA        SUNNY     43  26  50 NE7       30.07R
BOSCOBEL       SUNNY     44  27  51 NE6       30.08R
PRAIRIE DU CHI SUNNY     41  27  56 CALM      30.07R
PLATTEVILLE    SUNNY     44  29  56 E13       30.04R
$$

WIZ056-057-062-063-064-067-068-261500-
SOUTH CENTRAL WISCONSIN

CITY           SKY/WX    TMP DP  RH WIND       PRES   REMARKS
REEDSBURG      SUNNY     41  26  54 CALM      30.08R
BARABOO/DELLS  SUNNY     40  24  52 E3        30.07R
LONE ROCK      SUNNY     43  25  49 E7        30.07R
MINERAL POINT  SUNNY     43  28  56 E9        30.04S
MADISON        MOSUNNY   44  29  55 NE5       30.06R
MIDDLETON      SUNNY     43  28  54 NE5       30.06S
WATERTOWN      SUNNY     43  28  55 N5        30.05R
MONROE         SUNNY     43  32  65 NE6       30.04R
JANESVILLE     SUNNY     45  28  53 NE8       30.04R
$$

WIZ051-052-058>065-066-070>072-261500-
SOUTHEAST WISCONSIN

CITY           SKY/WX    TMP DP  RH WIND       PRES   REMARKS
MILWAUKEE      SUNNY     42  29  59 NE15      30.04R
WAUKESHA       SUNNY     43  27  52 NE7       30.04R
MILWAUKEE/TIMM SUNNY     45  25  45 N8        30.04R
RACINE         SUNNY     43  31  62 N15       30.05R
BURLINGTON     SUNNY     44  27  52 N8        30.02S
KENOSHA        SUNNY     46  33  60 N10       30.02R
FOND DU LAC    SUNNY     44  27  51 NE8       30.06R
SHEBOYGAN      SUNNY     44  27  51 N8        30.04R
WEST BEND      SUNNY     45  25  45 N5        30.04R
JUNEAU         SUNNY     43  28  56 NE6       30.06R
$$

LSZ147-162-261500-
LAKE SUPERIOR

STATION/POSITION TIME  TEMP    WIND        PRES    WAVE
                       AIR SEA DIR/SP/G            HT/PER
                 (UTC) (F)     (DEG/KT/KT) (MB)    (FT/S)
W MID LAKE BUOY  1350   36 34   30/ 10/ 14 1022.8R   1/ 3
DEVILS ISLAND    1400   37      60/  7/  8 1022.6R
PORT WING        1340   35     320/  2/  3 1021.7R
SAXON HARBOR     1340   37        CALM     1021.0R
$$

LMZ867-665-643>646-261500-
LAKE MICHIGAN

STATION/POSITION TIME  TEMP    WIND        PRES    WAVE
                       AIR SEA DIR/SP/G            HT/PER
                 (UTC) (F)     (DEG/KT/KT) (MB)    (FT/S)
CHAMBERS ISLAND  1300   40     330/  4/  6 1017.9R
NORTHPORT PIER   1300   37     340/ 13/ 15 1017.6R
SISTER BAY       1347   42     340/ 15/ 17   N/A
KEWAUNEE LAKESHO 1300   39     330/  4/ 10 1016.5R
SHEBOYGAN LAKESH 1400   40     360/ 12/ 14 1018.2R
PORT WASHINGTON  1300   42      20/  5/  9 1017.6
MILWAUKEE LAKESH 1400   40      10/ 14/ 17   N/A
KENOSHA   LAKESH 1400   40      20/ 17/ 19 1016.9R
$$

TC  - TEMPERATURE IN CELSIUS
VSB - VISIBILITY IN STATUTE MILES
WCI - WIND CHILL INDEX
HX  - HEAT INDEX



USA.gov is the U.S. government's official web portal to all federal, state and local government web resources and services.